Regional Weather Roundup
Issued by NWS Northern Indiana

Home | Current Version | Previous Version | Text Only | Print | Product List | Glossary Off
Versions: 1 2 3 4 5 6 7 8 9 10 11 12 13 14 15 16 17 18 19 20 21 22 23 24 25 26 27 28 29 30 31 32 33 34 35 36 37 38 39 40 41 42 43 44 45 46 47 48 49 50

794
ASUS43 KIWX 231100
RWRIWX

KIWX WEATHER ROUNDUP
NATIONAL WEATHER SERVICE NORTHERN INDIANA
600 AM EST THU NOV 23 2017

NOTE: "FAIR" INDICATES FEW OR NO CLOUDS BELOW 12,000 FEET WITH NO
SIGNIFICANT WEATHER AND/OR OBSTRUCTIONS TO VISIBILITY.

* THESE STATIONS ARE NOT UNDER NWS QUALITY CONTROL. THEY ALSO MAY NOT
  REPORT WEATHER SUCH AS PRECIPITATION OR FOG.

INZ001>027-231200-
NORTHERN INDIANA

CITY           SKY/WX    TMP DP  RH WIND       PRES   REMARKS
GARY*          CLOUDY    34  19  55 S9        30.08F WCI  26
MICHIGAN CITY* CLOUDY    32  21  64 SW8       30.09S WCI  25
LAPORTE*       CLOUDY    31  22  69 SW9       30.08F WCI  23
KNOX*          CLOUDY    32  23  69 SW8       30.10F WCI  25
SOUTH BEND     CLOUDY    29  21  72 SW10      30.09F WCI  20
GOSHEN         CLEAR     29  21  72 S9        30.09F WCI  20
MONTICELLO*    CLOUDY    30  23  74 S7        30.12F WCI  23
WARSAW*        CLOUDY    30  23  74 CALM      30.11F
AUBURN*        CLOUDY    30  23  74 CALM      30.12F
FORT WAYNE     CLOUDY    30  26  85 S7        30.13F WCI  23
PERU/GRISSOM   MOCLDY    29  26  90 S7        30.11F WCI  22

$$
INZ028>050-231200-
CENTRAL INDIANA

CITY           SKY/WX    TMP DP  RH WIND       PRES   REMARKS
LAFAYETTE      CLOUDY    30  24  78 S6        30.13F WCI  24
KOKOMO*        CLOUDY    29  26  89 S6        30.14F WCI  23
MUNCIE*        CLOUDY    32  24  72 SW6       30.14F WCI  26
INDIANAPOLIS   CLOUDY    30  24  78 S7        30.15F WCI  23

$$
MIZ043>046-050>051-056>058-064>065-071>073-077>080-231200-
SOUTHWEST LOWER MICHIGAN

CITY           SKY/WX    TMP DP  RH WIND       PRES   REMARKS
BATTLE CREEK   CLOUDY    30  19  63 SW9       30.07F WCI  22
BENTON HARBOR  CLOUDY    32  18  56 S8        30.07F WCI  25
COLDWATER*     CLOUDY    30  20  67 SW5       30.08F WCI  25
HILLSDALE*     CLOUDY    28  21  74 SW5       30.07F WCI  23
HOLLAND        CLOUDY    33  23  66 S8        30.05F WCI  26
GRAND RAPIDS   CLOUDY    32  23  69 SW10      30.05S WCI  24
KALAMAZOO      CLOUDY    30  17  58 SW9       30.07F WCI  22
STURGIS*       CLOUDY    28  22  79 S6        30.07F WCI  22
THREE RIVERS*  FAIR      30  22  70 SW6       30.08F WCI  24

$$
OHZ001>008-015>018-024>025-231200-
NORTHWEST OHIO

CITY           SKY/WX    TMP DP  RH WIND       PRES   REMARKS
DEFIANCE       CLOUDY    28  23  81 S7        30.13F WCI  21
FINDLAY        PTCLDY    30  23  75 S8        30.14F WCI  22
TOLEDO EXPRESS CLOUDY    29  25  85 S6        30.12F WCI  23
TOLEDO METCALF MOCLDY    30  23  75 S8        30.14F WCI  22
LIMA           CLOUDY    29  24  82 S7        30.14F WCI  22

$$
AND FOR LAKE MICHIGAN COASTAL AND OPEN LAKE BUOY OBSERVATIONS

STATION/POSITION TEMP    WIND        PRES    VSBY  WAVE
                 AIR SEA DIR/SP/G                  HT/PER
                 (F)     (DEG/KT/KT) (MB)    (MI)  (FT/S)
CALUMET HARBOR    33     200/ 10/ 14 1017.6F
MICHIGAN CITY     32     180/ 12/ 14   N/A
BURNS HARBOR      33     200/ 10/ 13 1019.0F
SAINT JOSEPH      35     210/ 14/ 19 1019.3
SOUTH LAKE BUOY   37 47  250/ 17/ 21 1018.1          4/ 5

$$
&&




USA.gov is the U.S. government's official web portal to all federal, state and local government web resources and services.